• en Suisse
  • Liste des pays
  • À 7 jours
  • Température de l'eau
  • Carte satellitaire
  • Carte météo
  • Widgets météo
  • user-avatar
    Se connecter

    Météo par heure à Bodø

    Ce jour, 23 Novembre, Jeudi

    Heure Température Précipitation Vent Pression Humidité
    00:00 -10°C° 0 mm 13 m/s 753 mmHg 71%
    01:00 -9°C° 0 mm 14 m/s 752 mmHg 70%
    02:00 -9°C° 0,1 mm 15 m/s 751 mmHg 69%
    03:00 -8°C° 0,1 mm 16 m/s 750 mmHg 69%
    04:00 -8°C° 0,1 mm 18 m/s 750 mmHg 68%
    05:00 -7°C° 0,1 mm 18 m/s 749 mmHg 68%
    06:00 -7°C° 0,1 mm 19 m/s 748 mmHg 67%
    07:00 -7°C° 0 mm 19 m/s 746 mmHg 67%
    08:00 -7°C° 0,1 mm 19 m/s 745 mmHg 67%
    09:00 -7°C° 0,1 mm 20 m/s 745 mmHg 66%
    10:00 -7°C° 0,1 mm 20 m/s 744 mmHg 66%
    11:00 -7°C° 0,2 mm 20 m/s 743 mmHg 67%
    12:00 -7°C° 0,2 mm 20 m/s 743 mmHg 68%
    13:00 -7°C° 0 mm 17 m/s 741 mmHg 69%
    14:00 -5°C° 0,2 mm 16 m/s 741 mmHg 69%
    15:00 -5°C° 0,2 mm 15 m/s 740 mmHg 69%
    16:00 -5°C° 0,2 mm 15 m/s 739 mmHg 69%
    17:00 -5°C° 0,1 mm 14 m/s 739 mmHg 70%
    18:00 -5°C° 0,1 mm 13 m/s 738 mmHg 70%
    19:00 -5°C° 0,1 mm 13 m/s 738 mmHg 71%
    20:00 -5°C° 0,1 mm 12 m/s 737 mmHg 71%
    21:00 -3°C° 0,1 mm 12 m/s 737 mmHg 72%
    22:00 -3°C° 0,1 mm 12 m/s 737 mmHg 73%
    23:00 -4°C° 0,1 mm 11 m/s 737 mmHg 73%

    Demain, 24 Novembre, Vendredi

    Heure Température Précipitation Vent Pression Humidité
    00:00 -4°C° 0,1 mm 11 m/s 736 mmHg 73%
    01:00 -4°C° 0,1 mm 11 m/s 736 mmHg 74%
    02:00 -4°C° 0,1 mm 10 m/s 736 mmHg 75%
    03:00 -4°C° 0,1 mm 9 m/s 736 mmHg 75%
    04:00 -4°C° 0,1 mm 9 m/s 736 mmHg 76%
    05:00 -4°C° 0,2 mm 8 m/s 737 mmHg 77%
    06:00 -3°C° 0,2 mm 7 m/s 737 mmHg 78%
    07:00 -3°C° 0,2 mm 6 m/s 738 mmHg 79%
    08:00 -3°C° 0,5 mm 6 m/s 738 mmHg 80%
    09:00 -2°C° 0,5 mm 5 m/s 738 mmHg 82%
    10:00 -1°C° 0,5 mm 5 m/s 738 mmHg 83%
    11:00 -1°C° 0,2 mm 5 m/s 739 mmHg 83%
    12:00 0°C° 0,2 mm 5 m/s 739 mmHg 83%
    13:00 0°C° 0,2 mm 5 m/s 739 mmHg 83%
    14:00 -2°C° 0 mm 6 m/s 740 mmHg 82%
    15:00 -2°C° 0 mm 6 m/s 740 mmHg 81%
    16:00 -3°C° 0 mm 7 m/s 740 mmHg 80%
    17:00 -3°C° 0 mm 7 m/s 740 mmHg 80%
    18:00 -4°C° 0 mm 7 m/s 740 mmHg 79%
    19:00 -5°C° 0 mm 8 m/s 741 mmHg 79%
    20:00 -5°C° 0,1 mm 8 m/s 741 mmHg 80%
    21:00 -4°C° 0,1 mm 7 m/s 741 mmHg 80%
    22:00 -4°C° 0,1 mm 7 m/s 742 mmHg 80%
    23:00 -4°C° 0 mm 7 m/s 742 mmHg 80%

    Après-demain, 25 Novembre, Samedi

    Heure Température Précipitation Vent Pression Humidité
    00:00 -6°C° 0 mm 7 m/s 743 mmHg 79%
    01:00 -6°C° 0 mm 7 m/s 743 mmHg 79%
    02:00 -6°C° 0 mm 6 m/s 744 mmHg 79%
    03:00 -6°C° 0 mm 6 m/s 744 mmHg 79%
    04:00 -6°C° 0 mm 6 m/s 745 mmHg 79%
    05:00 -6°C° 0 mm 6 m/s 745 mmHg 79%
    06:00 -6°C° 0 mm 6 m/s 745 mmHg 79%
    07:00 -6°C° 0 mm 5 m/s 745 mmHg 79%
    08:00 -6°C° 0 mm 5 m/s 745 mmHg 80%
    09:00 -6°C° 0 mm 5 m/s 745 mmHg 80%
    10:00 -6°C° 0 mm 5 m/s 746 mmHg 80%
    11:00 -6°C° 0 mm 5 m/s 746 mmHg 81%
    12:00 -7°C° 0 mm 5 m/s 746 mmHg 81%
    13:00 -7°C° 0 mm 4 m/s 746 mmHg 81%
    14:00 -7°C° 0 mm 4 m/s 746 mmHg 81%
    15:00 -7°C° 0 mm 4 m/s 746 mmHg 81%
    16:00 -7°C° 0 mm 4 m/s 746 mmHg 80%
    17:00 -7°C° 0 mm 4 m/s 746 mmHg 80%
    18:00 -8°C° 0 mm 4 m/s 746 mmHg 80%
    19:00 -8°C° 0 mm 4 m/s 746 mmHg 80%
    20:00 -8°C° 0 mm 4 m/s 746 mmHg 79%
    21:00 -8°C° 0 mm 4 m/s 746 mmHg 79%
    22:00 -9°C° 0 mm 4 m/s 746 mmHg 79%
    23:00 -9°C° 0,1 mm 4 m/s 746 mmHg 78%

    26 Novembre, Dimanche

    Heure Température Précipitation Vent Pression Humidité
    00:00 -9°C° 0,1 mm 4 m/s 747 mmHg 77%
    01:00 -10°C° 0,1 mm 4 m/s 747 mmHg 77%
    02:00 -9°C° 0,1 mm 4 m/s 747 mmHg 78%
    03:00 -9°C° 0,1 mm 4 m/s 747 mmHg 79%
    04:00 -9°C° 0,1 mm 4 m/s 747 mmHg 80%
    05:00 -8°C° 0,3 mm 4 m/s 747 mmHg 80%
    06:00 -8°C° 0,3 mm 4 m/s 747 mmHg 81%
    07:00 -7°C° 0,3 mm 4 m/s 747 mmHg 81%
    08:00 -7°C° 0,2 mm 4 m/s 747 mmHg 82%
    09:00 -7°C° 0,2 mm 4 m/s 748 mmHg 82%
    10:00 -5°C° 0,2 mm 4 m/s 748 mmHg 83%
    11:00 -5°C° 0,1 mm 4 m/s 748 mmHg 83%
    12:00 -5°C° 0,1 mm 4 m/s 748 mmHg 84%
    13:00 -5°C° 0,1 mm 4 m/s 748 mmHg 84%
    14:00 -5°C° 0,2 mm 4 m/s 748 mmHg 83%
    15:00 -5°C° 0,2 mm 4 m/s 748 mmHg 83%
    16:00 -5°C° 0,2 mm 4 m/s 748 mmHg 83%
    17:00 -5°C° 0,5 mm 4 m/s 748 mmHg 83%
    18:00 -5°C° 0,5 mm 4 m/s 748 mmHg 84%
    19:00 -6°C° 0,5 mm 5 m/s 747 mmHg 84%
    20:00 -5°C° 0,6 mm 5 m/s 748 mmHg 86%
    21:00 -5°C° 0,6 mm 5 m/s 748 mmHg 88%
    22:00 -4°C° 0,6 mm 4 m/s 748 mmHg 89%
    23:00 -3°C° 0,3 mm 4 m/s 748 mmHg 90%

    27 Novembre, Lundi

    Heure Température Précipitation Vent Pression Humidité
    00:00 -3°C° 0,3 mm 4 m/s 748 mmHg 90%
    01:00 -3°C° 0,3 mm 4 m/s 748 mmHg 91%
    02:00 -1°C° 0,2 mm 3 m/s 748 mmHg 90%
    03:00 -1°C° 0,2 mm 3 m/s 748 mmHg 90%
    04:00 -1°C° 0,2 mm 3 m/s 749 mmHg 89%
    05:00 -1°C° 0,1 mm 3 m/s 749 mmHg 89%
    06:00 -1°C° 0,1 mm 3 m/s 749 mmHg 88%
    07:00 -1°C° 0,1 mm 3 m/s 749 mmHg 88%
    08:00 -1°C° 0,2 mm 3 m/s 749 mmHg 87%
    09:00 -2°C° 0,2 mm 4 m/s 749 mmHg 86%
    10:00 -2°C° 0,2 mm 4 m/s 749 mmHg 86%
    11:00 -2°C° 0,3 mm 4 m/s 750 mmHg 85%
    12:00 -2°C° 0,3 mm 5 m/s 750 mmHg 85%
    13:00 -4°C° 0,3 mm 5 m/s 750 mmHg 85%
    14:00 -4°C° 0,3 mm 5 m/s 750 mmHg 84%
    15:00 -4°C° 0,3 mm 5 m/s 750 mmHg 84%
    16:00 -4°C° 0,3 mm 5 m/s 750 mmHg 83%
    17:00 -4°C° 0,2 mm 5 m/s 750 mmHg 83%
    18:00 -4°C° 0,2 mm 5 m/s 751 mmHg 82%
    19:00 -4°C° 0,2 mm 5 m/s 751 mmHg 81%
    20:00 -5°C° 0,1 mm 5 m/s 751 mmHg 80%
    21:00 -5°C° 0,1 mm 5 m/s 751 mmHg 80%
    22:00 -5°C° 0,1 mm 5 m/s 752 mmHg 80%
    23:00 -6°C° 0 mm 5 m/s 752 mmHg 79%

    28 Novembre, Mardi

    Heure Température Précipitation Vent Pression Humidité
    00:00 -6°C° 0 mm 5 m/s 752 mmHg 79%
    01:00 -5°C° 0 mm 4 m/s 752 mmHg 79%
    02:00 -5°C° 0 mm 4 m/s 753 mmHg 78%
    03:00 -5°C° 0 mm 4 m/s 753 mmHg 77%
    04:00 -5°C° 0 mm 4 m/s 753 mmHg 77%
    05:00 -6°C° 0 mm 3 m/s 754 mmHg 76%
    06:00 -6°C° 0 mm 3 m/s 754 mmHg 75%
    07:00 -6°C° 0 mm 3 m/s 754 mmHg 74%
    08:00 -6°C° 0,1 mm 3 m/s 755 mmHg 74%
    09:00 -6°C° 0,1 mm 3 m/s 755 mmHg 73%
    10:00 -6°C° 0,1 mm 3 m/s 756 mmHg 72%
    11:00 -6°C° 0,1 mm 3 m/s 756 mmHg 72%
    12:00 -5°C° 0,1 mm 3 m/s 756 mmHg 72%
    13:00 -5°C° 0,1 mm 3 m/s 756 mmHg 72%
    14:00 -5°C° 0,1 mm 3 m/s 756 mmHg 76%
    15:00 -4°C° 0,1 mm 3 m/s 756 mmHg 79%
    16:00 -4°C° 0,1 mm 3 m/s 757 mmHg 82%
    17:00 -4°C° 0,2 mm 3 m/s 757 mmHg 84%
    18:00 -2°C° 0,2 mm 3 m/s 757 mmHg 86%
    19:00 -2°C° 0,2 mm 2 m/s 757 mmHg 88%
    20:00 -2°C° 0,2 mm 2 m/s 756 mmHg 88%
    21:00 -2°C° 0,2 mm 2 m/s 756 mmHg 89%
    22:00 -2°C° 0,2 mm 2 m/s 756 mmHg 90%
    23:00 -2°C° 0,3 mm 3 m/s 756 mmHg 89%
    Voir plus